Flag for U.S.A. Weather past 2 weeks in Burbank, California, U.S.A.

Now
69 °F

Clear.


Feels Like: 69 °F
Forecast: 65 / 84 °F
Wind: 3 mph from Southeast

Location: Burbank-Glendale-Pasadena Airport

Current Time: Jul 3, 2015 at 1:13:47 AM

Latest Report: Jul 3, 2015 at 12:53 AM


Visibility: 10 mi

Pressure: 29.90 "Hg

Humidity: 73%

Dew point: 60 °F

Location of BurbankLocation

Historic Weather in Burbank — Graph

°F

Burbank temperature yesterday

Maximum temperature yesterday: 89 °F (at 4:53 PM)
Minimum temperature yesterday: 70 °F (at 11:53 PM)
Average temperature yesterday: 78 °F

Past Weeks' High & Low Weather Summary

 TemperatureHumidityPressure
High97 °F (Jun 29, 2:53 PM)85% (Jun 21, 5:53 AM)29.99 "Hg (Jun 21, 5:53 AM)
Low62 °F (Jun 18, 5:53 AM)14% (Jun 30, 7:53 PM)29.75 "Hg (Jun 20, 2:53 AM)
Average77 °F49%29.86 "Hg
* Reported Jun 17 11:53 PM — Jul 2 11:53 PM, Burbank, Weather by CustomWeather, © 2015

Note: Actual official high and low records may vary slightly from our data, if they occured in-between our weather recording intervals... More about our weather records

Advertising

Burbank weather history for previous 24 hours

 ConditionsComfort  
Time TempWeatherWind HumidityBarometerVisibility
11:53 PM
Thu, Jul 2
70 °FClear.5 mph71%29.90 "Hg10 mi
10:53 PM71 °FClear.8 mph71%29.91 "Hg10 mi
9:53 PM74 °FClear.7 mph64%29.90 "Hg10 mi
8:53 PM76 °FSunny.5 mph58%29.88 "Hg10 mi
7:53 PM79 °FSunny.9 mph48%29.87 "Hg10 mi
6:53 PM80 °FSunny.8 mph47%29.87 "Hg10 mi
5:53 PM85 °FSunny.9 mph35%29.85 "Hg10 mi
4:53 PM89 °FSunny.10 mph29%29.86 "Hg10 mi
3:53 PM88 °FSunny.6 mph22%29.89 "Hg10 mi
2:53 PM86 °FSunny.10 mph36%29.91 "Hg10 mi
1:53 PM88 °FSunny.10 mph31%29.92 "Hg10 mi
12:53 PM85 °FSunny.9 mph37%29.93 "Hg10 mi
11:53 AM84 °FSunny.9 mph41%29.94 "Hg10 mi
10:53 AM79 °FSunny.9 mph50%29.95 "Hg10 mi
9:53 AM78 °FSunny.6 mph50%29.95 "Hg10 mi
8:53 AM77 °FSunny.6 mph52%29.95 "Hg10 mi
7:53 AM76 °FSunny.3 mph54%29.95 "Hg10 mi
6:53 AM74 °FSunny.No wind57%29.93 "Hg10 mi
5:53 AM72 °FPassing clouds.No wind66%29.92 "Hg10 mi
4:53 AM72 °FPassing clouds.No wind61%29.92 "Hg10 mi
3:53 AM73 °FClear.No wind59%29.90 "Hg10 mi
2:53 AM73 °FClear.3 mph57%29.91 "Hg10 mi
1:53 AM73 °FClear.3 mph62%29.91 "Hg10 mi
Weather by CustomWeather, © 2015

See weather overviewHow to use our weather pages